User: anonymous   Login
Location: Boitzum
(52.1496°N, 9.6943°E)
Time: 17:42:03
(UTC+00:00)
Language:

Cosmos 1470 Rocket - Orbit

View from above orbital plane
View from above orbital plane
View from above satellite
View from above satellite

Ground track
Ground track

The orbit is defined by the following mean orbital elements,

1 14148U          26064.24044832 +.00000000 +00000-0 +81932-4 0 00003
2 14148  82.5211 165.5135 0019201 271.8946  88.0071 14.85663023    07
Epoch (UTC): 05 March 2026 05:46:14
Eccentricity: 0.0019201
inclination: 82.5211°
perigee height: 598 km
apogee height: 625 km
right ascension of ascending node: 165.5135°
argument of perigee: 271.8946°
revolutions per day: 14.85663023
mean anomaly at epoch: 88.0071°

The dashed part of the orbit path shows where the satellite is in the earth's shadow,  

DLR